| time (UTC) | temp C | wind direction | speed KPH | gust KPH | rain 1hr cm | rain 24hr cm | rain mn cm | humidity % | barometer mb |
| 20260506184550 | 15 | 264 | 3.2 | 14.5 | 0.00 | 1.70 | 1.27 | 70 | 1011.1 |
| 20260506183043 | 16 | 229 | 4.8 | 9.7 | 0.00 | 1.70 | 1.27 | 67 | 1010.8 |
| 20260506181543 | 16 | 229 | 6.4 | 19.3 | 0.00 | 1.70 | 1.27 | 63 | 1010.7 |
| 20260506180043 | 17 | 212 | 6.4 | 16.1 | 0.00 | 1.70 | 1.27 | 64 | 1010.5 |
| 20260506174542 | 17 | 281 | 9.7 | 20.9 | 0.00 | 1.70 | 1.27 | 65 | 1010.5 |
| 20260506173056 | 17 | 227 | 8.0 | 16.1 | 0.00 | 1.70 | 1.27 | 63 | 1010.3 |
| 20260506171551 | 18 | 230 | 6.4 | 16.1 | 0.00 | 1.70 | 1.27 | 61 | 1010.2 |
| 20260506170039 | 18 | 209 | 8.0 | 20.9 | 0.00 | 1.70 | 1.27 | 60 | 1010.2 |
| 20260506164540 | 18 | 206 | 11.3 | 20.9 | 0.00 | 1.70 | 1.27 | 57 | 1010.1 |
| 20260506163052 | 18 | 234 | 4.8 | 20.9 | 0.00 | 1.70 | 1.27 | 56 | 1010.1 |
| 20260506161542 | 18 | 194 | 8.0 | 20.9 | 0.00 | 1.70 | 1.27 | 56 | 1010.0 |
| 20260506160037 | 18 | 234 | 9.7 | 24.1 | 0.00 | 1.70 | 1.27 | 55 | 1010.2 |
| 20260506154538 | 18 | 193 | 9.7 | 20.9 | 0.00 | 1.70 | 1.27 | 54 | 1010.3 |
| 20260506153039 | 19 | 217 | 11.3 | 24.1 | 0.00 | 1.70 | 1.27 | 54 | 1010.3 |
| 20260506151534 | 18 | 230 | 6.4 | 24.1 | 0.00 | 1.70 | 1.27 | 55 | 1010.3 |
| 20260506150033 | 18 | 200 | 9.7 | 25.7 | 0.00 | 1.70 | 1.27 | 53 | 1010.3 |
| 20260506144532 | 18 | 229 | 9.7 | 24.1 | 0.00 | 1.70 | 1.27 | 55 | 1010.4 |
| 20260506143032 | 18 | 211 | 11.3 | 24.1 | 0.00 | 1.70 | 1.27 | 55 | 1010.4 |
| 20260506141532 | 19 | 244 | 14.5 | 29.0 | 0.00 | 1.70 | 1.27 | 51 | 1010.4 |
| 20260506140037 | 19 | 194 | 12.9 | 29.0 | 0.00 | 1.70 | 1.27 | 51 | 1010.4 |
| 20260506134529 | 19 | 189 | 16.1 | 25.7 | 0.00 | 1.70 | 1.27 | 52 | 1010.4 |
| 20260506133029 | 19 | 199 | 8.0 | 25.7 | 0.00 | 1.70 | 1.27 | 58 | 1010.5 |
| 20260506131528 | 19 | 229 | 11.3 | 29.0 | 0.00 | 1.70 | 1.27 | 58 | 1010.5 |
| 20260506130024 | 19 | 196 | 9.7 | 22.5 | 0.00 | 1.70 | 1.27 | 58 | 1010.5 |
| 20260506124525 | 20 | 224 | 12.9 | 25.7 | 0.00 | 1.70 | 1.27 | 54 | 1010.6 |
| 20260506123022 | 19 | 176 | 12.9 | 27.4 | 0.00 | 1.70 | 1.27 | 63 | 1010.6 |
| 20260506121520 | 19 | 162 | 11.3 | 25.7 | 0.00 | 1.70 | 1.27 | 64 | 1010.6 |
| 20260506120022 | 19 | 232 | 14.5 | 24.1 | 0.00 | 1.70 | 1.27 | 63 | 1010.7 |
| 20260506114516 | 18 | 175 | 9.7 | 29.0 | 0.00 | 1.70 | 1.27 | 65 | 1010.6 |
| 20260506113017 | 18 | 177 | 12.9 | 25.7 | 0.00 | 1.70 | 1.27 | 66 | 1010.6 |
| 20260506111513 | 18 | 191 | 9.7 | 27.4 | 0.00 | 1.70 | 1.27 | 67 | 1010.7 |
| 20260506110011 | 18 | 158 | 9.7 | 25.7 | 0.00 | 1.70 | 1.27 | 69 | 1010.9 |
| 20260506104510 | 18 | 192 | 12.9 | 22.5 | 0.00 | 1.70 | 1.27 | 67 | 1010.9 |
| 20260506103008 | 18 | 217 | 9.7 | 27.4 | 0.00 | 1.70 | 1.27 | 68 | 1011.0 |
| 20260506101507 | 18 | 178 | 12.9 | 22.5 | 0.00 | 1.70 | 1.27 | 67 | 1010.8 |
| 20260506100004 | 18 | 180 | 8.0 | 16.1 | 0.00 | 1.70 | 1.27 | 66 | 1010.8 |
| 20260506094501 | 18 | 237 | 8.0 | 17.7 | 0.00 | 1.70 | 1.27 | 67 | 1010.8 |
| 20260506093112 | 18 | 218 | 4.8 | 17.7 | 0.00 | 1.70 | 1.27 | 70 | 1010.8 |
| 20260506091556 | 17 | 262 | 6.4 | 12.9 | 0.00 | 1.70 | 1.27 | 71 | 1010.7 |
| 20260506090058 | 17 | 188 | 3.2 | 12.9 | 0.00 | 1.70 | 1.27 | 75 | 1010.6 |
| 20260506084550 | 17 | 263 | 4.8 | 9.7 | 0.00 | 1.70 | 1.27 | 75 | 1010.6 |
| 20260506083047 | 17 | 235 | 4.8 | 9.7 | 0.00 | 1.70 | 1.27 | 77 | 1010.5 |
| 20260506081543 | 16 | 288 | 4.8 | 11.3 | 0.00 | 1.70 | 1.27 | 78 | 1010.5 |
| 20260506073034 | 15 | 240 | 3.2 | 9.7 | 0.00 | 1.70 | 1.27 | 86 | 1010.2 |
| 20260506071534 | 15 | 151 | 1.6 | 9.7 | 0.00 | 1.70 | 1.27 | 86 | 1010.1 |
| 20260506061513 | 14 | 306 | 1.6 | 6.4 | 0.00 | 1.70 | 1.27 | 90 | 1009.7 |
| 20260506044539 | 13 | 306 | 1.6 | 8.0 | 0.03 | 1.70 | 1.27 | 93 | 1009.1 |
| 20260506043036 | 13 | 280 | 3.2 | 8.0 | 0.00 | 1.68 | 1.27 | 93 | 1009.0 |
| 20260506041536 | 13 | 308 | 3.2 | 6.4 | 0.00 | 1.68 | 1.27 | 93 | 1009.0 |
| 20260506040034 | 13 | 73 | 3.2 | 6.4 | 0.00 | 1.68 | 1.27 | 93 | 1008.9 |
| 20260506034534 | 13 | 73 | 0.0 | 4.8 | 0.00 | 1.68 | 1.27 | 93 | 1008.9 |
| 20260506033034 | 13 | 73 | 1.6 | 6.4 | 0.00 | 1.68 | 1.27 | 93 | 1008.8 |
| 20260506031533 | 13 | 73 | 1.6 | 4.8 | 0.00 | 1.68 | 1.27 | 93 | 1008.7 |
| 20260506030033 | 13 | 73 | 1.6 | 4.8 | 0.00 | 1.68 | 1.27 | 93 | 1008.7 |
| 20260506024532 | 13 | 73 | 1.6 | 6.4 | 0.00 | 1.68 | 1.27 | 93 | 1008.6 |
| 20260506023031 | 13 | 73 | 0.0 | 3.2 | 0.00 | 1.68 | 1.27 | 93 | 1008.5 |
| 20260506021531 | 13 | 73 | 0.0 | 4.8 | 0.00 | 1.68 | 1.27 | 93 | 1008.4 |
| 20260506020053 | 13 | 73 | 1.6 | 6.4 | 0.51 | 1.68 | 1.27 | 93 | 1008.4 |
| 20260506014526 | 13 | 73 | 0.0 | 6.4 | 0.71 | 1.68 | 1.27 | 93 | 1008.6 |
| 20260506013026 | 13 | 157 | 1.6 | 4.8 | 1.02 | 1.68 | 1.27 | 93 | 1008.8 |
| 20260506011528 | 13 | 104 | 9.7 | 16.1 | 1.09 | 1.68 | 1.27 | 93 | 1009.0 |
| 20260506010025 | 13 | 254 | 8.0 | 17.7 | 0.71 | 1.17 | 0.71 | 92 | 1009.2 |
| 20260506004524 | 13 | 285 | 8.0 | 12.9 | 0.51 | 0.97 | 0.51 | 92 | 1008.8 |
| 20260506003019 | 14 | 40 | 6.4 | 14.5 | 0.23 | 0.71 | 0.23 | 92 | 1008.8 |
| 20260506001516 | 14 | 344 | 4.8 | 12.9 | 0.15 | 0.61 | 0.15 | 92 | 1008.9 |
| 20260506000018 | 14 | 241 | 4.8 | 11.3 | 0.00 | 0.46 | 0.00 | 92 | 1008.8 |
| 20260505234513 | 14 | 55 | 8.0 | 14.5 | 0.00 | 1.12 | 0.00 | 92 | 1008.8 |
| 20260505233008 | 14 | 30 | 4.8 | 9.7 | 0.00 | 1.12 | 0.00 | 92 | 1009.4 |
| 20260505231508 | 14 | 49 | 1.6 | 4.8 | 0.00 | 1.12 | 0.00 | 92 | 1009.7 |
| 20260505230015 | 14 | 48 | 0.0 | 4.8 | 0.00 | 1.12 | 0.00 | 92 | 1010.0 |
| 20260505224504 | 14 | 48 | 3.2 | 9.7 | 0.00 | 1.60 | 0.00 | 92 | 1009.9 |
| 20260505223001 | 14 | 11 | 0.0 | 4.8 | 0.00 | 1.60 | 0.00 | 92 | 1010.1 |
| 20260505221602 | 14 | 41 | 1.6 | 4.8 | 0.00 | 1.60 | 0.00 | 92 | 1010.3 |
| 20260505220106 | 14 | 5 | 0.0 | 6.4 | 0.00 | 1.60 | 0.00 | 92 | 1010.6 |
| 20260505214605 | 14 | 53 | 4.8 | 12.9 | 0.05 | 1.80 | 1.60 | 92 | 1010.7 |
| 20260505213053 | 15 | 63 | 1.6 | 9.7 | 0.18 | 1.80 | 1.60 | 91 | 1010.9 |
| 20260505211626 | 15 | 51 | 3.2 | 6.4 | 0.30 | 1.80 | 1.60 | 92 | 1010.9 |
| 20260505210051 | 15 | 51 | 3.2 | 8.0 | 0.41 | 1.80 | 1.60 | 91 | 1011.1 |
| 20260505204600 | 15 | 32 | 6.4 | 14.5 | 0.36 | 1.80 | 1.55 | 91 | 1011.2 |
| 20260505203052 | 15 | 88 | 4.8 | 14.5 | 0.23 | 1.65 | 1.40 | 90 | 1011.9 |
| 20260505201549 | 16 | 53 | 8.0 | 11.3 | 0.13 | 1.55 | 1.30 | 88 | 1011.2 |
| 20260505200049 | 16 | 43 | 3.2 | 8.0 | 0.03 | 1.42 | 1.19 | 86 | 1011.5 |
| 20260505194547 | 16 | 44 | 1.6 | 8.0 | 0.00 | 1.42 | 1.17 | 84 | 1011.4 |
| 20260505193046 | 16 | 43 | 3.2 | 6.4 | 0.00 | 1.42 | 1.17 | 82 | 1011.4 |
| 20260505191546 | 16 | 173 | 0.0 | 3.2 | 0.00 | 1.42 | 1.17 | 81 | 1011.1 |
| 20260505190044 | 16 | 173 | 0.0 | 6.4 | 0.00 | 1.42 | 1.17 | 80 | 1011.2 |